Location: Hilton Head Island
(32.2163°N, 80.7526°W)
Time: 09:16:21
(UTC-04:00)

Explorer 11/Cluster Stage 4 - Pass Details

Date: 28 February 2026
Orbit: 463 x 1175 km, 28.8° (Epoch: 13 March)

Event Time Altitude Azimuth Distance (km) Brightness Sun altitude
Rises 05:26:42 0° 197° (SSW) 4,023 10.0 -18.7°
Reaches altitude 10° 05:31:45 10° 170° (S) 3,073 9.7 -17.7°
Maximum altitude 05:34:32 12° 149° (SSE) 2,887 9.8 -17.1°
Drops below altitude 10° 05:37:17 10° 127° (SE) 3,021 10.3 -16.5°
Sets 05:42:07 0° 100° (E) 3,878 11.9 -15.5°
